Location: *
(51.5000°N, 0.1100°W)
Time: 16:27:49
(UTC+00:00)

Cosmos 1025 Rocket - Pass Details

Date: 25 May 2024
Orbit: 589 x 614 km, 82.5° (Epoch: 16 June)

Event Time Altitude Azimuth Distance (km) Brightness Sun altitude
Rises 03:04:03 0° 173° (S) 2,872 6.1 -6.8°
Reaches altitude 10° 03:06:19 10° 168° (SSE) 1,973 5.3 -6.5°
Maximum altitude 03:10:31 49° 94° (E) 800 4.0 -6.1°
Drops below altitude 10° 03:14:46 10° 20° (NNE) 1,985 6.9 -5.6°
Sets 03:17:02 0° 15° (NNE) 2,893 7.7 -5.4°
